Flag for U.S.A. Weather past 2 weeks in Arden-Arcade, California, U.S.A.

Now
46 °F

Fog.


Feels Like: 42 °F
Forecast: 44 / 60 °F
Wind: 8 mph from Northwest

Location: Mather Field

Current Time: Jan 28, 2015 at 4:06:48 AM

Latest Report: Jan 28, 2015 at 2:46 AM


Visibility: 3 mi

Pressure: 30.25 "Hg

Humidity: 100%

Dew point: 46 °F

Location of Arden-ArcadeLocation

Historic Weather in Arden-Arcade — Graph

°F

Arden-Arcade temperature yesterday

Maximum temperature yesterday: 63 °F (at 1:45 PM)
Minimum temperature yesterday: 48 °F (at 2:52 AM)
Average temperature yesterday: 54 °F

Past Weeks' High & Low Weather Summary

 TemperatureHumidityPressure
High64 °F (Jan 26, 2:46 PM)100% (Jan 13, 2:55 AM)30.40 "Hg (Jan 13, 2:55 AM)
Low36 °F (Jan 13, 2:55 AM)48% (Jan 25, 4:46 PM)29.97 "Hg (Jan 26, 2:46 PM)
Average48 °F99%30.23 "Hg
* Reported Jan 13 2:55 AM — Jan 28 2:46 AM, Arden-Arcade, Weather by CustomWeather, © 2014

Note: Actual official high and low records may vary slightly from our data, if they occured in-between our weather recording intervals... More about our weather records

Advertising

Arden-Arcade weather history for previous 24 hours

 ConditionsComfort  
Time TempWeatherWind HumidityBarometerVisibility
2:46 AM
Jan 28
46 °FFog.8 mph100%30.25 "Hg3 mi
10:45 PM
Jan 27
48 °FOvercast.6 mph100%30.27 "Hg10 mi
9:45 PM50 °FOvercast.6 mph100%30.26 "Hg10 mi
8:45 PM52 °FOvercast.6 mph100%30.25 "Hg10 mi
7:45 PM54 °FOvercast.No wind100%30.24 "Hg10 mi
6:45 PM57 °FOvercast.No wind100%30.23 "Hg10 mi
5:45 PM57 °FOvercast.6 mph100%30.22 "Hg10 mi
3:50 PM63 °FOvercast.No wind100%30.22 "Hg10 mi
2:49 PM63 °FOvercast.No wind100%30.22 "Hg10 mi
1:45 PM63 °FMostly cloudy.5 mph100%30.21 "Hg10 mi
12:45 PM61 °FMostly cloudy.5 mph100%30.22 "Hg10 mi
11:46 AM59 °FMostly cloudy.6 mph100%30.22 "Hg10 mi
10:46 AM57 °FMostly cloudy.3 mph100%30.23 "Hg10 mi
9:55 AM54 °FPartly sunny.3 mph100%30.21 "Hg7 mi
8:46 AM50 °FFog.No wind100%30.20 "Hg5 mi
7:46 AM50 °FFog.5 mph100%30.17 "Hg5 mi
6:46 AM48 °FMostly cloudy.No wind100%30.15 "Hg7 mi
5:45 AM48 °FFog.3 mph100%30.12 "Hg5 mi
Weather by CustomWeather, © 2014

See weather overviewHow to use our weather pages